This is the latest recevied weather packets stored in our database for station/object KC9GSD. If no packets are shown the sender has not sent any weather packets the latest 1 day(s).
| Time | Temp. | Humidity | Pressure | Rain* | Wind** | Luminosity | Snow |
|---|---|---|---|---|---|---|---|
| 1778055507 | 20° C | 75% | 1011 hPa | 0 mm | 0.45 m/s, 145° | 0 W/m² | - |
| 1778055206 | 20° C | 75% | 1011.3 hPa | 0 mm | 0.45 m/s, 168° | 0 W/m² | - |
| 1778054903 | 20° C | 75% | 1011.2 hPa | 0 mm | 0.89 m/s, 166° | 0 W/m² | - |
| 1778054599 | 20° C | 75% | 1011.3 hPa | 0 mm | 0 m/s | 0 W/m² | - |
| 1778054297 | 20° C | 75% | 1011.2 hPa | 0 mm | 0.45 m/s, 187° | 0 W/m² | - |
| 1778053994 | 19.44° C | 76% | 1011 hPa | 0 mm | 0.45 m/s, 145° | 0 W/m² | - |
| 1778053691 | 20° C | 76% | 1010.9 hPa | 0 mm | 0 m/s | 0 W/m² | - |
| 1778053388 | 20° C | 75% | 1011 hPa | 0 mm | 0 m/s | 0 W/m² | - |
| 1778053086 | 20° C | 75% | 1011.1 hPa | 0 mm | 0 m/s | 0 W/m² | - |
| 1778052784 | 20° C | 74% | 1011.1 hPa | 0 mm | 0.45 m/s, 155° | 0 W/m² | - |
| 1778052480 | 20° C | 75% | 1010.9 hPa | 0 mm | 0 m/s | 0 W/m² | - |
| 1778052178 | 20° C | 75% | 1011 hPa | 0 mm | 0.45 m/s, 132° | 0 W/m² | - |
| 1778051875 | 20° C | 75% | 1011.1 hPa | 0 mm | 0.89 m/s, 125° | 0 W/m² | - |
| 1778051573 | 20° C | 74% | 1011 hPa | 0 mm | 0.89 m/s, 162° | 0 W/m² | - |
| 1778051270 | 20° C | 74% | 1011.1 hPa | 0 mm | 0.45 m/s, 148° | 0 W/m² | - |
| 1778050967 | 20° C | 74% | 1010.8 hPa | 0 mm | 0.89 m/s, 154° | 0 W/m² | - |
| 1778050665 | 20° C | 75% | 1011 hPa | 0 mm | 0.45 m/s, 149° | 0 W/m² | - |
| 1778050362 | 20° C | 73% | 1010.8 hPa | 0 mm | 0.45 m/s, 137° | 0 W/m² | - |
| 1778050058 | 20° C | 73% | 1011 hPa | 0 mm | 0.89 m/s, 149° | 0 W/m² | - |
| 1778049754 | 20° C | 73% | 1011.2 hPa | 0 mm | 1.34 m/s, 140° | 0 W/m² | - |
| 1778049452 | 20° C | 73% | 1011.3 hPa | 0 mm | 0.89 m/s, 151° | 0 W/m² | - |
| 1778049149 | 20° C | 73% | 1011.4 hPa | 0 mm | 0.89 m/s, 144° | 0 W/m² | - |
| 1778048847 | 20° C | 73% | 1011.2 hPa | 0 mm | 0.89 m/s, 140° | 0 W/m² | - |
| 1778048544 | 20° C | 73% | 1011 hPa | 0 mm | 0.89 m/s, 151° | 0 W/m² | - |
| 1778048240 | 20° C | 72% | 1011.2 hPa | 0 mm | 0.89 m/s, 156° | 0 W/m² | - |
* Rain latest hour (hover to see other rain measurements)
** Current wind speed in m/s (hover to see current wind gust speed)